Location: Newark
(21.1200°N, 73.4000°E)
Time: 05:46:22
(UTC+00:00)

ISS - Visible Passes

Search period start: 09 December 2019 00:00
Search period end: 19 December 2019 00:00
Orbit: 411 x 421 km, 51.6° (Epoch: 09 December)

Date Brightness Start Highest point End Pass type
(mag) Time Alt. Az. Time Alt. Az. Time Alt. Az.
11 Dec -3.3 13:39:26 10° NNW 13:42:18 42° NNE 13:42:18 42° NNE visible
12 Dec -2.4 12:51:30 10° N 12:54:08 21° NE 12:56:47 10° E visible
12 Dec -0.9 14:28:28 10° W 14:30:42 17° SW 14:31:26 16° SW visible
13 Dec -2.1 13:39:13 10° WNW 13:42:19 35° SW 13:45:25 10° SSE visible
14 Dec -3.7 12:50:32 10° NW 12:53:53 87° SW 12:57:13 10° SE visible
16 Dec -0.5 12:50:59 10° WNW 12:53:23 18° SW 12:55:48 10° S visible
